Tracking 32139 objects as of 17-Nov-2025
HD Live streaming from Space Station
objects crossing your sky now

STARLINK-35112

Track STARLINK-35112 now!
10-day predictions
STARLINK-35112 is classified as:


NORAD ID: 65520
Int'l Code: 2025-200A
Perigee: 553.5 km
Apogee: 554.7 km
Inclination: 97.6 °
Period: 95.6 minutes
Semi major axis: 6925 km
RCS: Unknown
Launch date: September 6, 2025
Source: United States (US)
Launch site: AIR FORCE EASTERN TEST RANGE (AFETR)
Your satellite tracking list
Your tracking list is empty




NASA's NSSDC Master Catalog

Two Line Element Set (TLE):
1 65520U 25200A   25320.62151783  .00006792  00000-0  46401-3 0  9994
2 65520  97.6063  28.2852 0000932  62.9734 297.1588 15.06482383 12118
Source of the keplerian elements: AFSPC